Date,TemperatureHighF,TemperatureAvgF,TemperatureLowF,DewpointHighF,DewpointAvgF,DewpointLowF,HumidityHigh,HumidityAvg,HumidityLow,PressureMaxIn,PressureMinIn,WindSpeedMaxMPH,WindSpeedAvgMPH,GustSpeedMaxMPH,PrecipitationSumIn
2013-1-1,70.2,58.6,49.2,65.5,55.7,46.7,92,90,84,30.12,29.90,16,3,16,0.94
2013-1-2,49.2,45.1,41.1,46.7,42.0,37.8,91,89,86,30.28,30.10,11,4,13,0.12
2013-1-3,52.2,44.0,38.6,39.8,35.7,31.8,91,73,59,30.41,30.23,12,5,13,0.00
2013-1-4,56.1,47.0,37.2,37.3,33.6,29.8,75,60,45,30.47,30.32,9,3,11,0.00
2013-1-5,53.6,49.3,45.6,43.9,37.6,33.4,83,64,54,30.36,30.21,11,2,11,0.03
2013-1-6,52.4,48.4,45.9,48.5,44.9,41.5,91,88,83,30.30,30.17,14,4,16,1.07
2013-1-7,59.0,50.0,40.1,46.4,42.4,36.8,89,76,61,30.32,30.15,12,3,13,0.00
2013-1-8,61.6,56.1,50.5,59.6,51.3,42.4,94,84,70,30.19,30.04,13,4,18,4.59
2013-1-9,67.4,63.5,60.8,66.2,62.1,59.1,96,95,94,30.16,30.05,13,4,13,2.27
2013-1-10,69.9,66.1,63.6,68.8,64.9,62.4,97,96,96,30.16,29.96,17,3,20,2.31
2013-1-11,70.9,66.9,62.6,70.0,65.7,61.7,97,96,95,30.10,29.98,5,1,7,0.50
2013-1-12,78.5,72.2,67.9,72.5,69.5,67.0,97,91,79,30.03,29.88,11,2,17,0.01
2013-1-13,77.0,64.8,48.7,72.2,61.7,46.5,93,90,78,30.11,29.81,15,5,20,0.96
2013-1-14,48.6,44.5,38.4,46.4,42.4,36.6,94,93,91,30.18,30.06,13,5,21,1.82
2013-1-15,45.4,42.8,39.2,44.0,41.3,37.6,99,94,92,30.12,29.97,10,3,15,0.32
2013-1-16,39.1,38.0,36.8,37.5,36.2,35.0,94,93,92,30.20,30.04,17,3,17,0.10
2013-1-17,53.5,44.1,34.4,42.5,37.8,32.6,93,79,62,30.44,30.19,12,2,15,0.00
2013-1-18,59.0,46.8,38.7,41.9,37.5,33.8,86,71,49,30.54,30.39,10,2,12,0.00
2013-1-19,67.7,50.9,37.4,52.1,43.4,33.9,89,77,55,30.40,30.22,7,1,9,0.01
2013-1-20,66.5,52.0,40.9,51.0,43.4,38.5,93,74,46,30.27,30.13,7,1,9,0.00
2013-1-21,67.2,55.0,43.2,52.0,45.3,39.0,89,71,51,30.23,30.14,9,1,9,0.00
2013-1-22,66.1,53.3,45.2,49.4,43.6,39.0,81,70,54,30.35,30.21,9,2,11,0.01
2013-1-23,72.2,56.4,41.6,55.0,47.3,38.7,92,74,49,30.39,30.27,10,2,12,0.00
2013-1-24,73.2,59.6,46.5,61.7,53.0,43.7,93,80,63,30.33,30.21,13,1,13,0.01
2013-1-25,75.6,62.2,50.8,63.0,55.7,48.0,93,80,61,30.24,30.13,14,2,18,0.00
2013-1-26,78.1,62.9,52.3,66.3,56.7,50.0,94,82,57,30.24,30.15,8,1,10,0.01
2013-1-27,75.5,64.0,52.3,65.0,57.8,49.8,94,81,64,30.25,30.15,17,2,17,0.01
2013-1-28,77.1,66.8,57.7,67.9,61.9,54.8,92,85,70,30.23,30.09,10,2,13,0.00
2013-1-29,79.6,71.9,64.6,71.3,67.5,62.5,94,86,74,30.09,29.76,17,4,25,0.00
2013-1-30,74.5,58.6,41.9,69.5,49.5,34.1,92,73,50,30.20,29.66,19,4,21,0.73
2013-1-31,62.2,49.0,36.3,41.5,35.3,31.7,87,62,35,30.35,30.20,8,1,11,0.00
2013-2-1,68.0,52.8,42.9,45.2,41.3,35.5,85,67,42,30.40,30.28,9,1,9,0.00
2013-2-2,71.5,57.0,43.3,56.1,48.2,38.9,92,74,51,30.32,30.16,10,2,15,0.00
2013-2-3,68.7,57.0,45.8,52.8,44.8,31.6,91,67,35,30.28,30.10,10,1,12,0.00
2013-2-4,63.6,53.7,44.3,54.0,48.4,38.5,92,82,66,30.10,29.93,9,1,9,0.03
2013-2-5,73.7,61.7,56.1,66.0,58.0,53.2,94,88,74,30.02,29.92,5,0,6,0.01
2013-2-6,65.4,59.7,52.1,61.5,57.0,49.8,95,91,85,30.10,29.93,12,3,16,0.55
2013-2-7,67.2,60.5,56.7,62.3,58.0,54.5,95,91,82,29.97,29.79,18,2,22,1.52
2013-2-8,68.9,59.5,53.4,62.2,56.1,49.7,95,89,78,30.17,29.97,13,3,15,0.00
2013-2-9,64.1,58.3,52.3,59.4,53.4,47.7,90,84,78,30.21,30.02,11,4,13,0.01
2013-2-10,78.1,70.8,62.0,72.5,67.4,59.2,93,89,82,30.02,29.87,19,5,26,0.17
2013-2-11,72.0,60.9,56.7,68.9,58.1,53.3,94,90,85,30.13,29.96,19,5,23,1.46
2013-2-12,71.4,61.3,55.9,69.6,59.6,53.4,96,94,91,30.05,29.73,12,3,13,0.04
2013-2-13,56.3,52.0,46.9,53.3,46.9,40.0,92,83,70,30.08,29.89,14,3,14,0.02
2013-2-14,59.9,49.4,39.9,45.1,40.9,36.6,89,73,50,30.16,30.05,10,1,10,0.00
2013-2-15,64.5,52.2,39.0,48.1,42.0,36.0,90,70,48,30.19,30.08,12,2,14,0.00
2013-2-16,54.0,47.1,39.0,41.6,32.9,28.1,76,59,41,30.33,30.19,17,3,19,0.00
2013-2-17,64.8,49.3,34.4,42.8,36.4,27.9,82,63,44,30.35,30.20,12,2,14,0.00
2013-2-18,67.2,57.8,41.9,62.0,51.4,37.2,86,79,71,30.21,29.94,15,3,20,0.00
2013-2-19,66.2,59.1,50.0,62.2,45.4,32.5,91,63,36,30.24,29.95,18,5,18,0.44
2013-2-20,59.1,51.9,42.9,37.2,33.3,29.7,61,49,40,30.25,30.00,14,4,17,0.00
2013-2-21,72.6,64.3,54.3,68.9,56.4,37.2,90,76,52,29.99,29.74,16,5,19,0.13
2013-2-22,71.7,63.5,55.5,68.9,56.3,51.0,92,78,62,29.98,29.84,13,3,13,0.56
2013-2-23,61.0,56.6,53.3,55.0,52.3,49.7,89,85,78,29.97,29.86,10,2,11,0.00
2013-2-24,70.1,58.7,47.0,59.9,53.1,43.9,92,82,69,29.97,29.71,17,4,17,2.27
2013-2-25,67.3,63.2,57.7,65.8,60.2,43.5,95,90,59,29.76,29.39,19,5,20,1.53
2013-2-26,59.8,53.3,46.9,46.0,41.0,36.2,77,63,54,29.93,29.59,18,4,20,0.00
2013-2-27,70.3,57.5,46.7,50.9,46.5,41.2,92,69,42,30.06,29.92,16,2,16,0.00
2013-2-28,52.0,47.5,41.5,41.3,36.5,33.5,78,66,53,30.17,30.06,10,1,15,0.00
2013-3-1,60.0,49.2,41.1,41.9,36.6,32.5,81,63,39,30.17,30.07,12,2,15,0.00
2013-3-2,46.7,41.1,34.2,33.7,30.3,26.3,79,66,57,30.28,30.17,13,3,16,0.00
2013-3-3,58.9,43.5,29.9,36.4,31.6,25.4,86,65,42,30.31,30.12,7,1,10,0.00
2013-3-4,71.5,57.8,39.9,57.4,49.3,34.8,87,74,57,30.12,29.91,20,3,25,0.00
2013-3-5,74.9,64.3,50.3,64.9,53.4,37.5,88,69,40,30.22,29.89,17,3,17,0.00
2013-3-6,62.6,51.7,39.9,37.4,31.9,28.3,64,47,32,30.36,30.21,12,3,13,0.00
2013-3-7,64.8,50.9,38.5,43.0,37.6,30.3,79,61,43,30.36,30.22,8,1,10,0.00
2013-3-8,71.4,56.0,40.0,51.2,44.3,36.5,90,68,41,30.29,30.13,7,1,11,0.00
2013-3-9,71.7,62.4,51.5,61.8,55.4,46.4,86,78,70,30.14,29.91,14,4,17,0.00
2013-3-10,79.8,69.2,57.8,67.3,62.2,53.7,91,79,62,29.95,29.83,18,4,25,0.10
2013-3-11,59.7,51.6,44.4,53.2,44.6,39.3,91,78,57,30.06,29.91,14,2,14,1.17
2013-3-12,66.8,53.2,40.4,44.6,40.5,36.2,86,64,42,30.22,30.05,11,1,12,0.00
2013-3-13,66.7,55.8,43.6,43.0,36.7,26.4,82,52,28,30.40,30.22,13,3,18,0.00
2013-3-14,71.2,57.0,43.6,43.2,34.8,24.9,68,44,31,30.44,30.28,12,2,12,0.00
2013-3-15,76.1,59.7,44.2,54.4,46.8,40.6,90,66,38,30.31,30.11,16,2,17,0.00
2013-3-16,77.5,62.8,48.6,60.9,53.1,45.2,92,73,48,30.13,29.93,19,2,19,0.00
2013-3-17,80.5,67.5,56.2,68.0,60.5,52.2,92,79,55,29.95,29.79,19,2,19,0.00
2013-3-18,83.6,73.7,68.0,71.0,66.6,63.2,91,80,59,29.90,29.75,11,2,20,0.00
2013-3-19,77.0,67.2,55.8,64.6,53.9,46.4,84,64,46,30.02,29.90,13,4,16,0.00
2013-3-20,70.9,61.8,54.2,56.1,43.4,29.0,80,53,30,30.19,29.97,15,4,21,0.05
2013-3-21,68.4,57.3,46.7,46.9,38.6,29.6,67,50,38,30.06,29.83,12,3,15,0.00
2013-3-22,80.5,67.2,57.0,70.5,60.6,46.9,89,80,67,29.88,29.72,10,2,12,0.01
2013-3-23,70.5,68.6,66.0,68.6,66.6,63.9,95,93,89,29.80,29.55,10,2,12,0.06
2013-3-24,69.8,61.3,48.3,68.3,51.9,32.6,95,74,44,30.04,29.60,16,3,20,0.00
2013-3-25,59.2,48.3,39.7,32.8,30.0,26.8,70,51,32,30.28,30.05,16,5,20,0.00
2013-3-26,54.7,46.9,37.3,29.9,27.5,24.6,63,47,37,30.42,30.28,14,4,17,0.00
2013-3-27,64.8,48.9,34.9,38.3,32.6,27.7,76,55,32,30.44,30.25,7,1,12,0.00
2013-3-28,72.5,54.7,38.2,47.9,41.8,34.3,88,65,38,30.35,30.21,9,1,10,0.00
2013-3-29,75.5,59.2,44.1,58.3,49.3,40.5,91,72,47,30.31,30.16,16,2,16,0.00
2013-3-30,75.8,63.9,52.1,63.2,56.1,48.0,92,77,56,30.19,30.01,13,2,16,0.00
2013-3-31,77.8,62.9,56.9,68.9,59.2,54.5,94,88,70,30.03,29.88,19,2,25,1.14
2013-4-1,76.6,63.9,55.1,64.3,57.9,53.4,95,82,55,30.08,29.94,12,2,12,0.00
2013-4-2,78.7,65.4,53.7,64.8,58.1,51.2,93,79,55,30.10,29.93,12,2,14,0.20
2013-4-3,65.6,61.8,54.1,63.2,59.1,51.2,94,91,86,30.01,29.69,19,4,19,2.09
2013-4-4,57.9,52.9,49.2,52.8,49.7,45.8,93,89,82,30.07,29.91,9,2,13,0.01
2013-4-5,68.0,55.3,48.4,54.5,48.4,44.2,88,78,59,30.19,30.05,14,4,16,0.00
2013-4-6,74.1,60.7,46.9,59.0,52.4,44.1,92,76,55,30.14,30.02,11,2,13,0.01
2013-4-7,80.9,67.2,54.1,65.7,58.9,51.1,91,76,54,30.07,29.94,13,2,14,0.00
2013-4-8,83.4,70.2,59.0,68.9,62.6,55.5,93,78,58,29.99,29.89,14,2,17,0.00
2013-4-9,84.4,76.2,67.7,74.0,70.2,63.4,90,82,68,29.96,29.87,15,4,18,0.00
2013-4-10,84.1,77.1,73.0,74.0,71.0,69.1,88,82,70,29.93,29.77,17,4,21,0.00
2013-4-11,75.8,65.7,52.9,72.3,61.7,49.8,92,87,79,29.85,29.67,13,3,21,0.82
2013-4-12,74.6,59.6,47.4,54.6,49.9,45.2,96,73,42,29.99,29.85,11,2,12,0.01
2013-4-13,78.4,67.3,52.6,56.5,51.3,45.7,78,58,38,30.02,29.83,15,3,15,0.03
2013-4-14,76.7,65.8,58.3,66.9,60.6,53.8,90,84,71,29.88,29.72,15,3,17,1.61
2013-4-15,80.0,71.3,62.4,75.1,68.3,59.1,94,91,84,29.94,29.80,8,2,9,0.05
2013-4-16,84.9,77.3,72.2,77.3,73.1,70.4,95,87,75,30.05,29.93,13,2,13,0.02
2013-4-17,86.7,78.1,72.2,76.2,72.4,69.8,93,83,69,30.05,29.90,12,3,15,0.00
2013-4-18,84.8,77.1,57.3,74.8,70.8,53.8,88,81,70,29.90,29.75,18,4,20,0.54
2013-4-19,61.0,53.6,47.5,53.5,45.5,42.2,92,75,54,30.19,29.89,19,5,24,0.10
2013-4-20,71.0,55.3,42.8,49.9,44.9,39.6,90,71,40,30.26,30.10,9,1,12,0.00
2013-4-21,75.4,61.2,48.1,54.5,49.9,44.4,88,69,42,30.20,30.08,10,2,12,0.01
2013-4-22,81.4,67.1,52.4,63.7,57.3,48.8,91,73,49,30.12,29.98,7,2,10,0.00
2013-4-23,85.7,74.7,66.2,71.3,67.3,63.1,90,79,60,30.05,29.93,12,3,14,0.00
2013-4-24,71.5,65.7,58.4,68.4,62.4,54.2,94,89,86,30.19,29.97,15,4,19,1.52
2013-4-25,75.2,62.7,54.1,62.1,54.2,48.9,92,75,51,30.32,30.18,11,3,14,0.00
2013-4-26,79.4,68.5,56.6,68.5,59.7,49.3,86,74,64,30.25,30.16,10,2,11,0.00
2013-4-27,85.4,74.4,65.3,72.6,66.7,61.5,93,78,55,30.18,30.01,10,2,15,0.00
2013-4-28,80.0,70.3,64.1,70.9,66.5,61.4,93,88,73,30.05,29.91,9,1,12,0.20
2013-4-29,83.9,71.2,58.7,69.8,63.1,56.7,94,77,51,29.97,29.84,6,1,9,0.01
2013-4-30,74.1,69.9,65.2,70.7,66.7,62.0,94,89,82,29.89,29.81,9,2,11,0.06
2013-5-1,77.3,70.5,66.6,72.8,67.3,64.1,95,90,78,29.90,29.79,9,1,10,0.12
2013-5-2,76.9,69.2,64.0,68.2,65.4,61.6,93,88,73,29.95,29.85,12,2,12,0.47
2013-5-3,67.8,56.2,48.4,65.8,52.5,43.5,94,88,77,30.06,29.90,18,4,18,0.13
2013-5-4,73.9,57.7,42.2,52.8,46.3,39.8,93,69,39,30.04,29.86,13,2,14,0.01
2013-5-5,63.9,57.8,50.1,53.5,46.5,43.8,83,67,51,30.04,29.88,14,3,18,0.00
2013-5-6,76.7,61.9,47.0,57.3,51.0,43.1,90,70,46,30.05,29.92,11,2,14,0.00
2013-5-7,82.4,68.7,54.7,63.3,58.2,51.8,92,71,47,30.05,29.96,10,1,12,0.00
2013-5-8,85.3,71.3,57.5,67.7,61.0,54.3,92,72,48,30.10,30.01,12,1,12,0.00
2013-5-9,84.1,73.1,60.9,70.8,65.4,58.3,93,78,59,30.08,29.98,12,2,13,0.00
2013-5-10,73.3,68.1,63.6,70.3,65.6,61.8,95,92,86,30.06,29.84,19,2,19,3.24
2013-5-11,76.7,69.7,63.6,70.7,66.3,62.0,96,89,80,30.07,29.93,7,2,13,1.10
2013-5-12,79.4,70.6,62.6,64.9,61.1,53.2,90,73,54,30.16,30.05,12,3,13,0.00
2013-5-13,81.9,68.3,55.3,60.7,52.0,45.7,77,58,38,30.29,30.16,14,2,14,0.00
2013-5-14,86.8,71.0,56.0,64.7,58.4,52.9,92,68,38,30.26,30.13,12,1,12,0.00
2013-5-15,85.5,70.7,58.7,69.7,62.0,55.8,92,76,52,30.18,30.00,9,1,13,0.00
2013-5-16,85.6,74.0,63.5,70.6,65.5,60.0,92,76,55,30.02,29.88,14,2,14,0.00
2013-5-17,87.2,77.5,68.6,74.9,70.4,65.1,93,80,62,30.01,29.92,12,2,14,0.00
2013-5-18,90.0,80.0,73.3,75.1,71.9,68.5,92,78,57,30.04,29.96,13,2,13,0.00
2013-5-19,88.9,79.8,71.7,76.8,72.8,68.8,93,80,62,29.98,29.91,12,2,18,0.00
2013-5-20,90.5,81.5,74.1,77.7,74.4,71.6,93,80,63,29.98,29.86,15,3,15,0.00
2013-5-21,91.1,80.9,74.9,77.3,73.6,71.5,92,79,59,29.94,29.78,10,2,18,0.00
2013-5-22,83.1,74.1,67.5,74.7,70.2,64.6,94,88,75,29.99,29.85,12,2,15,2.44
2013-5-23,90.9,76.8,67.5,78.9,71.4,64.5,95,84,66,30.10,29.93,15,1,15,1.89
2013-5-24,88.6,76.7,66.4,79.1,71.1,64.2,95,84,63,30.13,30.02,13,1,16,0.01
2013-5-25,88.9,77.7,68.0,72.7,68.6,63.3,89,75,57,30.20,30.09,9,2,11,0.00
2013-5-26,86.3,76.0,67.5,74.7,69.5,64.2,92,81,62,30.16,30.07,9,1,11,0.00
2013-5-27,90.2,78.3,66.8,74.2,69.4,64.1,94,76,55,30.11,29.98,10,2,13,0.00
2013-5-28,87.4,77.8,67.6,75.0,69.7,64.6,92,77,59,30.05,29.94,11,1,13,0.00
2013-5-29,86.6,77.8,71.0,78.0,72.6,65.5,92,84,73,29.98,29.89,13,2,16,0.06
2013-5-30,87.2,79.8,73.7,77.9,74.5,71.5,94,84,72,29.97,29.88,14,3,15,0.13
2013-5-31,89.9,81.7,74.4,79.6,74.9,71.7,92,81,64,29.98,29.89,14,2,14,0.00
2013-6-1,93.5,82.4,72.8,78.0,74.3,69.5,90,78,57,29.94,29.87,10,2,11,0.00
2013-6-2,84.1,77.5,70.3,76.1,72.7,66.9,90,85,76,30.00,29.84,15,1,16,0.02
2013-6-3,89.7,81.0,71.9,77.1,73.3,68.5,89,78,61,29.91,29.80,9,2,10,0.00
2013-6-4,93.2,82.9,73.2,78.8,74.4,69.4,88,77,59,29.91,29.81,7,1,9,0.00
2013-6-5,92.2,82.4,75.1,80.8,75.8,71.3,88,81,63,29.90,29.77,9,2,11,0.00
2013-6-6,90.4,79.4,71.8,78.4,73.4,68.1,89,82,65,29.85,29.68,12,2,14,0.19
2013-6-7,87.5,77.1,71.1,76.1,70.8,67.7,90,82,62,29.88,29.78,6,1,9,0.00
2013-6-8,89.0,78.5,70.8,77.2,71.3,67.0,90,79,62,29.94,29.86,9,1,13,0.00
2013-6-9,90.4,78.5,70.8,78.1,72.7,67.7,90,83,64,29.96,29.85,7,1,10,0.63
2013-6-10,89.1,80.5,73.4,81.3,75.4,70.5,91,85,73,30.00,29.93,9,1,10,0.01
2013-6-11,93.0,83.5,74.7,83.8,76.9,70.2,88,81,70,30.07,29.97,7,1,9,0.00
2013-6-12,94.2,83.5,74.1,82.0,75.9,70.3,88,79,59,30.08,29.98,7,1,10,0.00
2013-6-13,94.8,83.7,73.8,80.9,75.0,69.7,88,76,58,30.05,29.88,7,1,9,0.00
2013-6-14,93.7,85.4,77.9,83.5,77.4,70.8,88,78,66,29.94,29.82,10,2,13,0.00
2013-6-15,94.9,83.9,74.1,81.1,73.9,67.6,82,73,56,29.99,29.89,6,1,10,0.00
2013-6-16,93.5,84.5,77.1,81.9,76.7,72.5,88,78,64,30.04,29.93,10,1,11,0.00
2013-6-17,92.9,83.5,74.2,80.8,75.1,70.1,88,77,60,30.00,29.89,11,2,12,0.00
2013-6-18,93.7,83.7,74.8,80.2,74.3,68.1,88,74,56,29.99,29.86,11,2,15,0.00
2013-6-19,84.4,77.3,74.1,78.7,72.5,67.9,88,85,78,30.04,29.92,7,1,7,0.29
2013-6-20,89.5,79.4,72.5,82.1,73.9,68.9,89,84,70,30.11,29.99,12,1,13,0.08
2013-6-21,91.7,80.8,72.0,80.3,73.8,68.3,89,80,65,30.09,30.02,9,1,9,0.00
2013-6-22,92.7,81.5,72.3,81.6,73.8,68.6,89,78,62,30.07,29.97,9,1,11,0.00
2013-6-23,92.5,80.7,73.1,80.5,73.8,69.0,89,80,62,30.05,29.98,9,1,13,0.00
2013-6-24,89.2,81.0,74.0,80.9,75.1,70.2,89,83,72,30.10,30.01,11,1,11,0.75
2013-6-25,93.3,82.5,73.0,81.0,74.1,69.0,89,77,60,30.08,29.97,10,1,10,0.00
2013-6-26,96.7,84.1,72.0,81.1,74.0,67.9,89,73,52,30.03,29.92,9,1,9,0.00
2013-6-27,95.5,84.7,75.1,81.4,75.6,70.9,88,75,56,30.01,29.90,8,1,11,0.00
2013-6-28,95.0,86.3,78.7,81.7,77.5,73.9,88,76,58,29.94,29.76,12,2,14,0.00
2013-8-9,88.6,81.9,78.5,81.9,76.5,74.6,88,84,78,29.99,29.90,10,1,10,0.08
2013-8-10,95.6,82.2,75.7,83.6,76.1,70.0,90,83,61,30.04,29.95,7,1,17,0.21
2013-8-11,88.4,79.8,74.9,81.9,76.0,71.6,90,88,79,30.09,30.02,10,1,10,1.00
2013-8-12,90.5,80.5,75.0,85.9,76.9,71.5,90,89,82,30.08,29.99,10,0,10,0.11
2013-8-13,89.0,78.8,73.0,84.8,75.4,69.9,90,89,86,30.03,29.91,14,1,19,1.66
2013-8-14,79.9,75.5,73.0,76.0,71.9,69.6,90,89,88,29.98,29.90,10,1,10,1.35
2013-8-15,87.1,78.6,72.6,81.0,73.9,69.0,90,86,76,29.98,29.89,10,1,11,0.00
2013-8-16,89.1,80.9,73.1,80.1,74.2,70.0,90,81,65,29.96,29.88,8,1,10,0.00
2013-8-17,87.7,80.0,74.2,78.8,73.7,70.3,89,81,70,29.95,29.88,10,2,14,0.00
2013-8-18,84.4,77.8,72.3,76.5,72.3,69.2,90,83,73,29.99,29.91,13,2,15,0.00
2013-8-19,91.5,79.2,72.8,79.4,73.4,69.7,90,83,67,30.03,29.94,5,1,7,0.00
2013-8-20,93.1,79.3,72.4,83.0,73.8,66.1,90,84,65,30.04,29.95,9,1,11,2.18
2013-8-21,89.9,79.4,72.9,82.9,75.1,69.6,90,87,79,30.09,30.01,7,1,9,0.18
2013-8-22,92.6,81.8,74.7,81.8,75.7,71.6,90,82,66,30.06,29.94,9,1,11,0.01
2013-8-23,91.1,81.6,74.6,81.5,75.3,71.5,90,82,66,29.99,29.89,11,2,15,0.01
2013-8-24,83.5,78.6,74.8,78.5,74.2,71.2,90,86,82,30.07,29.94,13,3,18,0.00
2013-8-25,84.1,77.1,73.5,80.5,73.8,70.4,90,90,88,30.13,30.04,12,2,14,0.70
2013-8-26,83.4,77.2,73.5,80.0,73.9,70.4,90,90,88,30.16,30.08,11,2,15,0.52
2013-8-27,87.4,77.4,70.9,79.2,73.0,67.8,90,87,69,30.10,30.02,7,1,10,0.01